Regional Weather Roundup
Issued by NWS

Home | Current Version | Previous Version | Text Only | Print | Product List | Glossary Off
Versions: 1 2 3 4 5 6 7 8 9 10 11 12 13 14 15 16 17 18 19 20 21 22 23 24 25 26 27

000
ASUS45 KCYS 181710
RWRWY

WYOMING REGIONAL WEATHER ROUNDUP
NATIONAL WEATHER SERVICE CHEYENNE WY
1100 AM MDT FRI AUG 18 2017

NOTE:  "FAIR" INDICATES FEW OR NO CLOUDS BELOW 12,000 FEET
WITH NO SIGNIFICANT WEATHER AND/OR OBSTRUCTIONS TO VISIBILITY.

WYZ001-181800-
YELLOWSTONE NATIONAL PARK

CITY           SKY/WX    TMP DP  RH WIND       PRES   REMARKS
LK YELLOWSTONE   N/A     58  43  57 VRB5      30.38F
W YELLOWSTONE  NOT AVBL

$$
WYZ002>013-054>058-071-098>099-181800-
NORTHERN WYOMING

CITY           SKY/WX    TMP DP  RH WIND       PRES   REMARKS
JACKSON        FAIR      57  34  41 VRB3      30.33F
CODY           FAIR      77  36  22 VRB3      30.15F
GREYBULL       FAIR      76  40  27 CALM      30.10F
WORLAND        FAIR      76  48  37 NW5       30.11F
SHERIDAN       FAIR      82  39  21 E6        30.08F
BUFFALO        FAIR      81  32  17 S8        30.16F
GILLETTE       FAIR      81  36  19 NE6       30.12F
HULETT         FAIR      77  39  25 W3        30.12F
NEWCASTLE      FAIR      73  41  31 NW3       30.13F

$$
WYZ014>020-022>026-101>103-181800-
CENTRAL WYOMING

CITY           SKY/WX    TMP DP  RH WIND       PRES   REMARKS
BIG PINEY      FAIR      65  33  30 S6        30.35F
PINEDALE       FAIR      66  34  30 SE7       30.35F
DUBOIS         FAIR      70  32  24 W5        30.30F
LANDER           N/A    N/A N/A N/A MISG      30.20F
RIVERTON       FAIR      72  44  36 CALM      30.22F
CASPER         FAIR      76  41  28 W9        30.21S
DOUGLAS        FAIR      75  49  39 NW5       30.18F

$$
WYZ021-027>030-104>119-181800-
SOUTHERN WYOMING

CITY           SKY/WX    TMP DP  RH WIND       PRES   REMARKS
EVANSTON       FAIR      74  34  23 SW8       30.35S
KEMMERER         N/A     72  32  23 CALM      30.36S
FORT BRIDGER   FAIR      77  31  18 W7        30.36F
ROCK SPRINGS   FAIR      70  32  24 VRB3      30.33F
RAWLINS        FAIR      73  35  25 SW12      30.32S
SARATOGA       FAIR      70  37  30 N3        30.34F
LARAMIE        FAIR      69  38  32 SE3       30.33F
CHEYENNE       FAIR      75  42  30 W5        30.26F
TORRINGTON     FAIR      76  49  38 VRB3      30.14F
PINE BLUFFS    FAIR      73  41  31 W3        30.22S

$$




USA.gov is the U.S. government's official web portal to all federal, state and local government web resources and services.